TimeMST,TemperatureF,Dew PointF,Humidity,Sea Level PressureIn,VisibilityMPH,Wind Direction,Wind SpeedMPH,Gust SpeedMPH,PrecipitationIn,Events,Conditions,WindDirDegrees,DateUTC
12:15 AM,6.8,-2.2,67,30.31,10.0,SSE,10.4,-,N/A,,Clear,160,2013-01-05 07:15:00
12:35 AM,6.8,-2.2,67,30.31,10.0,SSE,10.4,-,N/A,,Clear,160,2013-01-05 07:35:00
12:55 AM,6.8,-2.2,67,30.31,10.0,SSE,10.4,-,N/A,,Clear,160,2013-01-05 07:55:00
1:15 AM,6.8,-2.2,67,30.31,10.0,SSE,10.4,-,N/A,,Clear,160,2013-01-05 08:15:00
1:35 AM,6.8,-2.2,67,30.31,10.0,SSE,9.2,-,N/A,,Clear,150,2013-01-05 08:35:00
1:55 AM,6.8,-2.2,67,30.31,10.0,SSE,10.4,-,N/A,,Clear,160,2013-01-05 08:55:00
2:15 AM,6.8,-2.2,67,30.32,10.0,SSE,9.2,-,N/A,,Clear,150,2013-01-05 09:15:00
2:35 AM,6.8,-2.2,67,30.32,10.0,SSE,9.2,-,N/A,,Clear,150,2013-01-05 09:35:00
2:55 AM,6.8,-2.2,67,30.32,10.0,SSE,9.2,-,N/A,,Clear,150,2013-01-05 09:55:00
3:15 AM,6.8,-2.2,67,30.32,10.0,SSE,9.2,-,N/A,,Clear,160,2013-01-05 10:15:00
3:35 AM,6.8,-2.2,67,30.33,10.0,SSE,10.4,-,N/A,,Clear,160,2013-01-05 10:35:00
3:55 AM,5.0,-2.2,72,30.33,10.0,SSE,10.4,-,N/A,,Clear,160,2013-01-05 10:55:00
4:15 AM,6.8,-2.2,67,30.33,10.0,SSE,9.2,-,N/A,,Clear,160,2013-01-05 11:15:00
4:55 AM,6.8,-2.2,67,30.34,10.0,SSE,11.5,-,N/A,,Clear,150,2013-01-05 11:55:00
5:15 AM,5.0,-2.2,72,30.34,10.0,SSE,10.4,-,N/A,,Clear,150,2013-01-05 12:15:00
5:35 AM,5.0,-2.2,72,30.34,10.0,SSE,10.4,-,N/A,,Clear,150,2013-01-05 12:35:00
5:55 AM,5.0,-2.2,72,30.35,10.0,SSE,10.4,-,N/A,,Clear,160,2013-01-05 12:55:00
6:35 AM,6.8,-2.2,67,30.35,10.0,SSE,11.5,-,N/A,,Clear,150,2013-01-05 13:35:00
6:55 AM,6.8,-2.2,67,30.35,10.0,SSE,11.5,-,N/A,,Clear,160,2013-01-05 13:55:00
7:15 AM,6.8,-2.2,67,30.36,10.0,SSE,10.4,-,N/A,,Clear,150,2013-01-05 14:15:00
7:35 AM,6.8,-2.2,67,30.36,10.0,SSE,11.5,-,N/A,,Clear,160,2013-01-05 14:35:00
7:55 AM,6.8,-2.2,67,30.37,10.0,SSE,10.4,-,N/A,,Clear,160,2013-01-05 14:55:00
8:15 AM,6.8,-2.2,67,30.37,10.0,SSE,11.5,-,N/A,,Clear,160,2013-01-05 15:15:00
8:55 AM,14.0,-0.4,53,30.37,10.0,South,9.2,-,N/A,,Clear,170,2013-01-05 15:55:00
9:15 AM,17.6,1.4,49,30.38,10.0,SSE,9.2,-,N/A,,Clear,160,2013-01-05 16:15:00
9:55 AM,23.0,3.2,43,30.39,10.0,SSE,6.9,-,N/A,,Clear,160,2013-01-05 16:55:00
10:15 AM,28.4,1.4,31,30.39,10.0,South,6.9,-,N/A,,Clear,170,2013-01-05 17:15:00
10:35 AM,32.0,1.4,27,30.39,10.0,Calm,Calm,-,N/A,,Clear,0,2013-01-05 17:35:00
10:55 AM,37.4,-0.4,20,30.39,10.0,Calm,Calm,-,N/A,,Clear,0,2013-01-05 17:55:00
11:15 AM,41.0,-20.2,7,30.38,10.0,Calm,Calm,-,N/A,,Clear,0,2013-01-05 18:15:00
11:35 AM,41.0,-23.8,6,30.38,10.0,Calm,Calm,-,N/A,,Clear,0,2013-01-05 18:35:00
11:55 AM,44.6,-22.0,5,30.37,10.0,Calm,Calm,-,N/A,,Clear,0,2013-01-05 18:55:00
12:15 PM,44.6,-20.2,6,30.36,10.0,Calm,Calm,-,0.01,,Clear,0,2013-01-05 19:15:00
12:35 PM,46.4,-20.2,6,30.35,10.0,Calm,Calm,-,0.01,,Clear,0,2013-01-05 19:35:00
12:55 PM,44.6,-7.6,11,30.33,10.0,NW,4.6,-,0.01,,Clear,320,2013-01-05 19:55:00
1:15 PM,44.6,-4.0,13,30.33,10.0,Calm,Calm,-,N/A,,Clear,0,2013-01-05 20:15:00
1:35 PM,44.6,-2.2,14,30.32,10.0,NW,3.5,-,N/A,,Clear,310,2013-01-05 20:35:00
1:55 PM,44.6,-5.8,12,30.32,10.0,WNW,4.6,-,N/A,,Clear,300,2013-01-05 20:55:00
2:15 PM,46.4,-7.6,10,30.32,10.0,Calm,Calm,-,N/A,,Clear,0,2013-01-05 21:15:00
2:35 PM,46.4,-2.2,13,30.32,10.0,Calm,Calm,-,N/A,,Unknown,0,2013-01-05 21:35:00
2:55 PM,44.6,-0.4,15,30.33,10.0,Calm,Calm,-,N/A,,Clear,0,2013-01-05 21:55:00
3:15 PM,44.6,-0.4,15,30.33,10.0,Calm,Calm,-,N/A,,Clear,0,2013-01-05 22:15:00
3:55 PM,44.6,-0.4,15,30.33,10.0,Calm,Calm,-,N/A,,Clear,0,2013-01-05 22:55:00
4:15 PM,44.6,-0.4,15,30.33,10.0,Calm,Calm,-,N/A,,Clear,0,2013-01-05 23:15:00
4:35 PM,42.8,1.4,18,30.33,10.0,Calm,Calm,-,N/A,,Clear,0,2013-01-05 23:35:00
4:55 PM,44.6,1.4,17,30.33,10.0,Calm,Calm,-,N/A,,Clear,0,2013-01-05 23:55:00
5:15 PM,41.0,-0.4,18,30.33,10.0,Calm,Calm,-,N/A,,Clear,0,2013-01-06 00:15:00
5:35 PM,39.2,-0.4,19,30.33,10.0,Calm,Calm,-,N/A,,Clear,0,2013-01-06 00:35:00
5:55 PM,39.2,-0.4,19,30.34,10.0,Calm,Calm,-,N/A,,Clear,0,2013-01-06 00:55:00
6:15 PM,32.0,3.2,30,30.34,10.0,Calm,Calm,-,N/A,,Clear,0,2013-01-06 01:15:00
6:35 PM,24.8,6.8,46,30.34,10.0,SE,8.1,-,N/A,,Clear,140,2013-01-06 01:35:00
6:55 PM,24.8,8.6,50,30.34,10.0,SSE,9.2,-,N/A,,Clear,160,2013-01-06 01:55:00
7:15 PM,24.8,8.6,50,30.35,10.0,SSE,9.2,-,N/A,,Clear,160,2013-01-06 02:15:00
7:35 PM,24.8,6.8,46,30.34,10.0,SSE,10.4,-,N/A,,Clear,160,2013-01-06 02:35:00
7:55 PM,24.8,6.8,46,30.34,10.0,SSE,10.4,-,N/A,,Clear,160,2013-01-06 02:55:00
8:15 PM,23.0,6.8,50,30.34,10.0,SSE,9.2,-,N/A,,Clear,160,2013-01-06 03:15:00
8:35 PM,21.2,6.8,54,30.34,10.0,SSE,9.2,-,N/A,,Clear,160,2013-01-06 03:35:00
8:55 PM,23.0,6.8,50,30.33,10.0,SE,9.2,-,N/A,,Clear,140,2013-01-06 03:55:00
9:15 PM,24.8,6.8,46,30.33,10.0,SE,8.1,-,N/A,,Clear,140,2013-01-06 04:15:00
9:35 PM,26.6,6.8,43,30.33,10.0,SSE,5.8,-,N/A,,Clear,150,2013-01-06 04:35:00
9:55 PM,24.8,5.0,43,30.33,10.0,SSE,8.1,-,N/A,,Clear,150,2013-01-06 04:55:00
10:15 PM,26.6,5.0,40,30.33,10.0,SSE,9.2,-,N/A,,Clear,160,2013-01-06 05:15:00
10:35 PM,24.8,5.0,43,30.33,10.0,SSE,9.2,-,N/A,,Clear,160,2013-01-06 05:35:00
10:55 PM,24.8,3.2,40,30.33,10.0,SSE,8.1,-,N/A,,Clear,150,2013-01-06 05:55:00
11:15 PM,24.8,3.2,40,30.32,10.0,SE,8.1,-,N/A,,Clear,140,2013-01-06 06:15:00
11:35 PM,24.8,1.4,36,30.32,10.0,SE,11.5,-,N/A,,Clear,140,2013-01-06 06:35:00
11:55 PM,24.8,1.4,36,30.32,10.0,SE,11.5,-,N/A,,Clear,140,2013-01-06 06:55:00